• In Spain
  • List of Countries
  • For 7 days
  • Water Temperature
  • Satellite Maps
  • Weather Map
  • Weather Widgets
  • user-avatar
    Login

    Hourly Weather Adelaide

    Today, 22 January, Monday

    Time Temperature Precipitation Wind Pressure Humidity
    00:00 +26°C° 0.4 mm 4 mps 752 mmHg 64%
    01:00 +25°C° 0.2 mm 4 mps 752 mmHg 67%
    02:00 +25°C° 0.2 mm 4 mps 752 mmHg 69%
    03:00 +25°C° 0 mm 3 mps 752 mmHg 70%
    04:00 +24°C° 0.2 mm 3 mps 752 mmHg 72%
    05:00 +24°C° 0.2 mm 3 mps 753 mmHg 74%
    06:00 +24°C° 0.2 mm 3 mps 753 mmHg 76%
    07:00 +25°C° 0.2 mm 3 mps 753 mmHg 70%
    08:00 +26°C° 0.2 mm 4 mps 753 mmHg 65%
    09:00 +28°C° 0 mm 4 mps 754 mmHg 56%
    10:00 +28°C° 0 mm 5 mps 753 mmHg 52%
    11:00 +29°C° 0 mm 5 mps 753 mmHg 49%
    12:00 +30°C° 0 mm 6 mps 753 mmHg 45%
    13:00 +30°C° 0 mm 6 mps 753 mmHg 44%
    14:00 +30°C° 0 mm 6 mps 753 mmHg 44%
    15:00 +30°C° 0 mm 6 mps 752 mmHg 43%
    16:00 +28°C° 0 mm 6 mps 753 mmHg 47%
    17:00 +27°C° 0 mm 6 mps 753 mmHg 52%
    18:00 +24°C° 0 mm 7 mps 753 mmHg 57%
    19:00 +23°C° 0 mm 6 mps 754 mmHg 62%
    20:00 +21°C° 0 mm 6 mps 754 mmHg 67%
    21:00 +20°C° 0 mm 6 mps 755 mmHg 71%
    22:00 +19°C° 0 mm 5 mps 755 mmHg 73%
    23:00 +19°C° 0 mm 5 mps 755 mmHg 75%

    Tomorrow, 23 January, Tuesday

    Time Temperature Precipitation Wind Pressure Humidity
    00:00 +19°C° 0 mm 5 mps 755 mmHg 76%
    01:00 +17°C° 0 mm 5 mps 755 mmHg 78%
    02:00 +18°C° 0 mm 4 mps 755 mmHg 79%
    03:00 +18°C° 0 mm 4 mps 754 mmHg 81%
    04:00 +18°C° 0 mm 4 mps 755 mmHg 81%
    05:00 +18°C° 0 mm 4 mps 755 mmHg 80%
    06:00 +17°C° 0 mm 5 mps 755 mmHg 80%
    07:00 +20°C° 0 mm 5 mps 755 mmHg 71%
    08:00 +21°C° 0 mm 4 mps 755 mmHg 62%
    09:00 +23°C° 0 mm 4 mps 755 mmHg 53%
    10:00 +25°C° 0 mm 4 mps 755 mmHg 48%
    11:00 +27°C° 0 mm 5 mps 754 mmHg 43%
    12:00 +28°C° 0 mm 5 mps 754 mmHg 38%
    13:00 +29°C° 0 mm 5 mps 754 mmHg 39%
    14:00 +29°C° 0 mm 6 mps 753 mmHg 40%
    15:00 +29°C° 0 mm 6 mps 753 mmHg 40%
    16:00 +27°C° 0 mm 6 mps 753 mmHg 44%
    17:00 +26°C° 0 mm 6 mps 753 mmHg 48%
    18:00 +24°C° 0 mm 6 mps 753 mmHg 52%
    19:00 +23°C° 0 mm 6 mps 753 mmHg 57%
    20:00 +21°C° 0 mm 5 mps 754 mmHg 62%
    21:00 +20°C° 0 mm 5 mps 754 mmHg 67%
    22:00 +20°C° 0 mm 5 mps 754 mmHg 69%
    23:00 +19°C° 0 mm 5 mps 753 mmHg 71%

    Day after tomorrow, 24 January, Wednesday

    Time Temperature Precipitation Wind Pressure Humidity
    00:00 +19°C° 0 mm 5 mps 753 mmHg 73%
    01:00 +19°C° 0 mm 4 mps 753 mmHg 75%
    02:00 +19°C° 0 mm 4 mps 753 mmHg 76%
    03:00 +18°C° 0 mm 4 mps 752 mmHg 78%
    04:00 +19°C° 0 mm 4 mps 753 mmHg 77%
    05:00 +19°C° 0 mm 4 mps 753 mmHg 76%
    06:00 +19°C° 0 mm 4 mps 753 mmHg 75%
    07:00 +21°C° 0 mm 4 mps 753 mmHg 66%
    08:00 +23°C° 0 mm 4 mps 753 mmHg 57%
    09:00 +26°C° 0 mm 4 mps 753 mmHg 49%
    10:00 +28°C° 0 mm 4 mps 753 mmHg 44%
    11:00 +29°C° 0 mm 5 mps 752 mmHg 40%
    12:00 +32°C° 0 mm 5 mps 752 mmHg 35%
    13:00 +32°C° 0 mm 5 mps 751 mmHg 35%
    14:00 +32°C° 0 mm 6 mps 751 mmHg 35%
    15:00 +32°C° 0 mm 6 mps 751 mmHg 34%
    16:00 +30°C° 0 mm 6 mps 751 mmHg 38%
    17:00 +28°C° 0 mm 6 mps 750 mmHg 42%
    18:00 +27°C° 0 mm 6 mps 750 mmHg 46%
    19:00 +24°C° 0 mm 6 mps 751 mmHg 51%
    20:00 +23°C° 0 mm 6 mps 751 mmHg 56%
    21:00 +21°C° 0 mm 5 mps 752 mmHg 61%
    22:00 +21°C° 0 mm 5 mps 752 mmHg 62%
    23:00 +21°C° 0 mm 5 mps 752 mmHg 63%

    25 January, Thursday

    Time Temperature Precipitation Wind Pressure Humidity
    00:00 +21°C° 0 mm 5 mps 751 mmHg 64%
    01:00 +20°C° 0 mm 5 mps 751 mmHg 66%
    02:00 +20°C° 0 mm 4 mps 751 mmHg 68%
    03:00 +20°C° 0 mm 4 mps 750 mmHg 70%
    04:00 +20°C° 0 mm 4 mps 751 mmHg 69%
    05:00 +20°C° 0 mm 3 mps 751 mmHg 68%
    06:00 +21°C° 0 mm 3 mps 751 mmHg 67%
    07:00 +24°C° 0 mm 3 mps 751 mmHg 58%
    08:00 +27°C° 0 mm 3 mps 751 mmHg 49%
    09:00 +29°C° 0 mm 3 mps 751 mmHg 41%
    10:00 +30°C° 0 mm 3 mps 751 mmHg 37%
    11:00 +33°C° 0 mm 4 mps 750 mmHg 34%
    12:00 +35°C° 0 mm 4 mps 750 mmHg 31%
    13:00 +35°C° 0 mm 5 mps 750 mmHg 31%
    14:00 +35°C° 0 mm 5 mps 749 mmHg 30%
    15:00 +35°C° 0 mm 5 mps 749 mmHg 30%
    16:00 +33°C° 0 mm 6 mps 749 mmHg 34%
    17:00 +32°C° 0 mm 6 mps 750 mmHg 37%
    18:00 +29°C° 0 mm 6 mps 750 mmHg 41%
    19:00 +28°C° 0 mm 5 mps 750 mmHg 44%
    20:00 +26°C° 0 mm 5 mps 751 mmHg 48%
    21:00 +25°C° 0 mm 5 mps 751 mmHg 51%
    22:00 +25°C° 0 mm 5 mps 751 mmHg 52%
    23:00 +23°C° 0 mm 4 mps 751 mmHg 53%

    26 January, Friday

    Time Temperature Precipitation Wind Pressure Humidity
    00:00 +23°C° 0 mm 4 mps 751 mmHg 53%
    01:00 +23°C° 0 mm 4 mps 751 mmHg 52%
    02:00 +24°C° 0 mm 3 mps 750 mmHg 50%
    03:00 +24°C° 0 mm 3 mps 750 mmHg 49%
    04:00 +24°C° 0 mm 3 mps 750 mmHg 50%
    05:00 +24°C° 0 mm 3 mps 750 mmHg 52%
    06:00 +24°C° 0 mm 2 mps 751 mmHg 54%
    07:00 +27°C° 0 mm 2 mps 751 mmHg 46%
    08:00 +29°C° 0 mm 2 mps 751 mmHg 39%
    09:00 +32°C° 0 mm 2 mps 751 mmHg 32%
    10:00 +34°C° 0 mm 3 mps 751 mmHg 29%
    11:00 +36°C° 0 mm 3 mps 751 mmHg 27%
    12:00 +37°C° 0 mm 4 mps 751 mmHg 24%
    13:00 +37°C° 0 mm 4 mps 750 mmHg 24%
    14:00 +37°C° 0 mm 5 mps 750 mmHg 24%
    15:00 +37°C° 0 mm 5 mps 750 mmHg 24%
    16:00 +36°C° 0 mm 5 mps 750 mmHg 26%
    17:00 +35°C° 0 mm 5 mps 750 mmHg 28%
    18:00 +34°C° 0 mm 5 mps 750 mmHg 30%
    19:00 +33°C° 0 mm 4 mps 751 mmHg 31%
    20:00 +30°C° 0 mm 4 mps 751 mmHg 32%
    21:00 +29°C° 0 mm 3 mps 751 mmHg 33%
    22:00 +29°C° 0 mm 3 mps 751 mmHg 33%
    23:00 +29°C° 0 mm 3 mps 751 mmHg 32%

    27 January, Saturday

    Time Temperature Precipitation Wind Pressure Humidity
    00:00 +29°C° 0 mm 3 mps 750 mmHg 32%
    01:00 +29°C° 0 mm 3 mps 750 mmHg 35%
    02:00 +29°C° 0 mm 3 mps 750 mmHg 37%
    03:00 +29°C° 0 mm 3 mps 750 mmHg 40%
    04:00 +29°C° 0 mm 3 mps 750 mmHg 42%
    05:00 +29°C° 0 mm 3 mps 750 mmHg 44%
    06:00 +29°C° 0 mm 3 mps 750 mmHg 46%
    07:00 +33°C° 0 mm 3 mps 751 mmHg 40%
    08:00 +36°C° 0 mm 3 mps 751 mmHg 35%
    09:00 +39°C° 0 mm 3 mps 751 mmHg 29%
    10:00 +41°C° 0 mm 2 mps 750 mmHg 25%
    11:00 +42°C° 0 mm 2 mps 750 mmHg 21%
    12:00 +44°C° 0 mm 1 mps 749 mmHg 18%
    13:00 +45°C° 0 mm 2 mps 749 mmHg 18%
    14:00 +45°C° 0 mm 3 mps 749 mmHg 17%
    15:00 +45°C° 0 mm 4 mps 748 mmHg 17%
    16:00 +44°C° 0 mm 4 mps 748 mmHg 19%
    17:00 +43°C° 0 mm 4 mps 748 mmHg 20%
    18:00 +41°C° 0 mm 5 mps 748 mmHg 22%
    19:00 +40°C° 0 mm 4 mps 749 mmHg 24%
    20:00 +38°C° 0 mm 4 mps 749 mmHg 26%
    21:00 +36°C° 0 mm 3 mps 749 mmHg 29%
    22:00 +36°C° 0 mm 3 mps 749 mmHg 30%
    23:00 +35°C° 0 mm 3 mps 749 mmHg 31%
    Show more